FENGYUN 1C DEB, 38496

Orbit data source: Space-Track

FENGYUN 1C DEB, 38496 is space debris in SSO originally from a launch on Mon, 10 May 1999 UTC launched from the Taiyaun Space Center, China (TSC). Fengyun 1C debris stems from the Chinese weather satellite Fengyun-1C, which was intentionally destroyed by a Chinese anti-satellite missile in 2007. This event dramatically increased the amount of space debris, with thousands of trackable fragments posing hazards to satellites and human spaceflight. The Fengyun 1C debris cloud has become a focal point in discussions about space sustainability and the need for international regulations to prevent the creation of new debris.

Loading next visibility...
Identifier
38496, 1999-025ESF
Orbit
SSO
Country
Flag of CNCN / PRC
Related business
Manufacturer
Unknown
Mission
Spacecraft
Bus & Motor
Unknown
Mass
Unknown
Launch date (UTC)
1999-05-10 (27 years ago)
Launch vehicle
Unknown
Launch site
Taiyaun Space Center, China (TSC)
Object type
Payload
Rocket body
Debris
Shape & HBR
Unknown shape, 0.1 m
Radar Cross Section
Small (<0.1 m²)

Expand to show TLE details & history
Last TLE update: 6 days ago

TLE from 6 days ago
0 FENGYUN 1C DEB
1 38496U 99025ESF 26250.27525360  .00000752  00000-0  43345-3 0  9996
2 38496  98.7626 258.2198 0076117 326.9288  32.7136 14.10698776848062
Epoch: 2026-09-07T06:36Z
TLE epoch observation values (Epoch: 2026-09-07T06:36:21.911Z)
Latitude
0.00003°
Longitude
172.77014°
Altitude
813.66 km
Speed
7.47 km/s
True Right ascension
17h 12m 52s
True Declination
0° 00' 00"
Sunlit
Object was in daylight at epoch
Visualization orbit readout
Latitude
Unknown
Longitude
Unknown
Altitude
Unknown
Speed
Unknown
Apparent Right ascension
Unknown
Apparent Declination
Unknown
Sunlit
N/A
Visualization observer readout
Local Sidereal Time
02:33:30
Azimuth
Unknown
Elevation
Unknown
Doppler factor
Unknown
Orbital elements
Apogee altitude
909.205 km
Perigee altitude
799.105 km
Semi-major axis
7,232.292 km
Eccentricity
0.00761
Inclination
98.7626°
RAAN
258.2198°
Arg. of periapsis
326.9288°
True anomaly
33.18879°
Mean anomaly
32.7136°
Eccentric anomaly
32.95081°
Mean motion
3.52882 °/min
Orbital period
102.02 mins
BSTAR
0.00043345
Loading maneuver chart data...
Computing Atmospheric mass density...

Documentation

Showing up to 5 results
|